User: anonymous   Login
Location: Albany
(35.0000°S, 118.0000°E)
Time: 14:13:28
(UTC-04:00)
Language:

Centaur D-1AR AC-48 - Orbit

View from above orbital plane
View from above orbital plane
View from above satellite
View from above satellite

Ground track
Ground track

The orbit data is extracted from the following two-line orbital elements,

1 10779U 78035B   15212.61411757 -.00000095  00000-0 -51517-3 0  9998
2 10779 021.8446 308.5333 7177899 308.6810 031.3844 02.22637708303387
Epoch (UTC): 31 July 2015 14:44:19
Eccentricity: 0.7177899
inclination: 21.8446°
perigee height: 613 km
apogee height: 36178 km
right ascension of ascending node: 308.5333°
argument of perigee: 308.6810°
revolutions per day: 2.22637708
mean anomaly at epoch: 31.3844°
orbit number at epoch: 30338

The dashed part of the orbit path shows where the satellite is in the earth's shadow,  

DLR